period_start,C,m1,H,J0,J1,J2,J3,J4,J5,JA,JB,JC,JD,JJ,JK,JN,#
2016-04-01 00:04:30,0.08,6.64,0.00,11.07,15.68,20.07,15.32,51.40,1019.55,2076.76,1679.76,1890.82,2140.39,599.98,622.75,36.03,0000 0000 0000 0000 000000
2016-04-01 00:09:31,0.09,6.65,0.00,11.04,15.70,20.08,15.32,51.39,1019.55,2076.44,1678.66,1890.02,2139.51,599.92,622.67,36.08,0000 0000 0000 0000 000000
2016-04-01 00:14:32,0.10,6.65,0.00,11.04,15.73,20.08,15.40,51.41,1019.54,2076.11,1677.54,1889.15,2138.55,600.08,623.03,36.13,0000 0000 0000 0000 000000
2016-04-01 00:19:34,0.12,6.66,0.00,11.07,15.76,20.10,15.37,51.38,1019.52,2076.06,1676.54,1888.50,2137.70,599.95,622.83,36.18,0000 0000 0000 0000 000000
2016-04-01 00:24:35,0.11,6.67,0.00,11.10,15.78,20.09,15.37,51.37,1019.53,2076.02,1675.36,1887.77,2136.77,599.82,622.57,36.23,0000 0000 0000 0000 000000
2016-04-01 00:29:36,0.10,6.67,0.00,11.14,15.80,20.14,15.41,51.34,1019.54,2076.01,1674.28,1886.99,2135.95,600.21,622.90,36.29,0000 0000 0000 0000 000000
2016-04-01 00:34:38,0.13,6.68,0.00,11.17,15.83,20.14,15.31,51.35,1019.54,2076.00,1673.38,1886.12,2135.07,599.52,622.09,36.34,0000 0000 0000 0000 000000
2016-04-01 00:39:39,0.12,6.68,0.00,11.16,15.85,20.24,15.31,51.34,1019.53,2076.00,1672.47,1885.43,2134.19,600.16,622.80,36.39,0000 0000 0000 0000 000000
2016-04-01 00:44:40,0.05,6.69,0.00,11.14,15.88,20.20,15.35,51.39,1019.53,2076.00,1671.89,1884.91,2133.45,599.71,622.37,36.44,0000 0000 0000 0000 000000
2016-04-01 00:49:41,0.11,6.69,0.00,11.17,15.91,20.24,15.36,51.53,1019.52,2076.00,1671.02,1884.08,2132.79,600.06,622.66,36.49,0000 0000 0000 0000 000000
2016-04-01 00:54:43,0.13,6.70,0.00,11.26,15.93,20.27,15.30,51.40,1019.55,2075.97,1670.07,1883.36,2131.90,599.84,622.22,36.54,0000 0000 0000 0000 000000
2016-04-01 00:59:44,0.09,6.71,0.00,11.32,15.97,20.27,15.36,51.50,1019.55,2075.97,1669.18,1882.79,2131.04,599.94,622.35,36.59,0000 0000 0000 0000 000000
2016-04-01 01:04:45,0.09,6.71,0.00,11.37,15.99,20.30,15.35,51.42,1019.55,2075.81,1668.21,1882.00,2130.19,599.86,622.09,36.64,0000 0000 0000 0000 000000
2016-04-01 01:09:47,0.07,6.71,0.00,11.42,16.03,20.38,15.34,51.36,1019.58,2075.35,1667.33,1881.13,2129.34,600.07,622.16,36.69,0000 0000 0000 0000 000000
2016-04-01 01:14:48,0.10,6.72,0.00,11.48,16.05,20.43,15.32,51.34,1019.58,2075.10,1666.48,1880.51,2128.55,599.85,621.83,36.74,0000 0000 0000 0000 000000
2016-04-01 01:19:49,0.07,6.72,0.00,11.52,16.08,20.48,15.33,51.35,1019.61,2075.03,1665.61,1879.86,2127.75,600.03,621.89,36.79,0000 0000 0000 0000 000000
2016-04-01 01:24:51,0.10,6.73,0.00,11.56,16.12,20.52,15.28,51.37,1019.66,2075.01,1664.75,1879.05,2126.92,600.08,621.93,36.84,0000 0000 0000 0000 000000
2016-04-01 01:29:52,0.11,6.73,0.00,11.59,16.15,20.52,15.31,51.37,1019.71,2075.00,1663.88,1878.33,2126.06,599.92,621.77,36.89,0000 0000 0000 0000 000000
2016-04-01 01:34:53,0.11,6.74,0.00,11.62,16.18,20.49,15.31,51.33,1019.87,2074.99,1663.02,1877.68,2125.18,599.92,621.79,36.94,0000 0000 0000 0000 000000
2016-04-01 01:39:55,0.10,6.74,0.00,11.66,16.21,20.56,15.43,51.42,1019.80,2074.99,1662.09,1876.97,2124.43,600.10,621.84,36.99,0000 0000 0000 0000 000000
2016-04-01 01:44:56,0.13,6.75,0.00,11.70,16.24,20.55,15.32,51.34,1019.83,2074.96,1661.17,1876.16,2123.62,600.15,621.79,37.04,0000 0000 0000 0000 000000
2016-04-01 01:49:57,0.10,6.76,0.00,11.77,16.27,20.64,15.28,51.48,1019.79,2074.89,1660.22,1875.52,2122.80,600.10,621.61,37.09,0000 0000 0000 0000 000000
2016-04-01 01:54:58,0.04,6.76,0.00,11.79,16.30,20.66,15.29,51.40,1019.60,2074.46,1659.24,1874.80,2121.90,599.95,621.25,37.14,0000 0000 0000 0000 000000
2016-04-01 02:00:00,0.09,6.76,0.00,11.81,16.33,20.71,15.33,51.27,1019.55,2074.18,1658.29,1874.03,2121.06,600.33,621.52,37.20,0000 0000 0000 0000 000000
2016-04-01 02:05:01,0.12,6.77,0.00,11.81,16.36,20.72,15.34,51.37,1019.55,2074.04,1657.38,1873.25,2120.19,600.26,621.55,37.25,0000 0000 0000 0000 000000
2016-04-01 02:10:02,0.12,6.77,0.00,11.80,16.40,20.79,15.36,51.46,1019.55,2074.01,1656.43,1872.63,2119.37,599.97,621.33,37.30,0000 0000 0000 0000 000000
2016-04-01 02:15:04,0.10,6.78,0.00,11.84,16.43,20.78,15.33,51.38,1019.55,2074.00,1655.44,1871.91,2118.54,600.06,621.22,37.35,0000 0000 0000 0000 000000
2016-04-01 02:20:05,0.11,6.79,0.00,11.90,16.45,20.82,15.35,51.38,1019.55,2074.00,1654.58,1871.09,2117.82,600.27,621.18,37.40,0000 0000 0000 0000 000000
2016-04-01 02:25:06,0.10,6.79,0.00,11.94,16.48,20.83,15.31,51.50,1019.55,2073.98,1653.78,1870.38,2116.95,599.99,620.98,37.45,0000 0000 0000 0000 000000
2016-04-01 02:30:07,0.10,6.80,0.00,11.90,16.51,20.88,15.31,51.46,1019.55,2073.97,1652.83,1869.76,2116.07,599.99,620.85,37.50,0000 0000 0000 0000 000000
2016-04-01 02:35:08,0.10,6.80,0.00,11.91,16.53,20.89,15.29,51.52,1019.55,2073.96,1652.01,1869.03,2115.25,599.93,620.87,37.55,0000 0000 0000 0000 000000
2016-04-01 02:40:10,0.12,6.81,0.00,11.96,16.55,20.84,15.27,51.46,1019.55,2073.91,1651.17,1868.31,2114.48,600.42,621.33,37.60,0000 0000 0000 0000 000000
2016-04-01 02:45:11,0.05,6.81,0.00,12.04,16.57,20.90,15.33,51.42,1019.55,2073.60,1650.28,1867.67,2113.66,599.97,620.84,37.65,0000 0000 0000 0000 000000
2016-04-01 02:50:12,0.05,6.81,0.00,12.05,16.59,20.96,15.26,51.40,1019.55,2073.13,1649.27,1866.98,2112.88,600.02,620.63,37.70,0000 0000 0000 0000 000000
2016-04-01 02:55:14,0.12,6.82,0.00,12.02,16.61,20.98,15.27,51.39,1019.56,2073.03,1648.37,1866.15,2112.02,599.90,620.68,37.75,0000 0000 0000 0000 000000
2016-04-01 03:00:15,0.13,6.82,0.00,12.07,16.63,21.02,15.27,51.39,1019.62,2073.03,1647.45,1865.49,2111.12,600.01,620.78,37.80,0000 0000 0000 0000 000000
2016-04-01 03:05:17,0.04,6.83,0.00,12.16,16.64,20.99,15.26,51.33,1019.98,2073.00,1646.80,1864.97,2110.70,599.94,620.66,37.85,0000 0000 0000 0000 000000
2016-04-01 03:10:18,0.12,6.84,0.00,12.20,16.66,21.00,15.21,51.23,1020.03,2073.01,1645.85,1864.20,2109.95,599.92,620.61,37.90,0000 0000 0000 0000 000000
2016-04-01 03:15:19,0.11,6.84,0.00,12.21,16.68,21.02,15.31,51.23,1020.03,2073.00,1644.96,1863.61,2109.11,599.92,620.46,37.95,0000 0000 0000 0000 000000
2016-04-01 03:20:21,0.10,6.85,0.00,12.20,16.70,21.11,15.34,51.19,1020.02,2073.00,1644.03,1862.94,2108.29,600.29,621.00,38.00,0000 0000 0000 0000 000000
2016-04-01 03:25:22,0.13,6.85,0.00,12.27,16.72,21.14,15.33,51.25,1020.03,2072.99,1643.10,1862.11,2107.43,600.19,620.59,38.05,0000 0000 0000 0000 000000
2016-04-01 03:30:23,0.11,6.86,0.00,12.31,16.75,21.19,15.33,51.24,1020.02,2072.99,1642.20,1861.48,2106.75,599.96,620.31,38.11,0000 0000 0000 0000 000000
2016-04-01 03:35:24,0.07,6.86,0.00,12.31,16.78,21.19,15.28,51.30,1020.03,2072.98,1641.51,1860.93,2106.00,600.20,620.64,38.16,0000 0000 0000 0000 000000
2016-04-01 03:40:26,0.12,6.87,0.00,12.31,16.82,21.27,15.26,51.27,1020.03,2072.93,1640.56,1860.09,2105.13,600.02,620.45,38.21,0000 0000 0000 0000 000000
2016-04-01 03:45:27,0.08,6.87,0.00,12.37,16.85,21.30,15.23,51.33,1020.03,2072.63,1639.69,1859.38,2104.24,599.95,620.25,38.26,0000 0000 0000 0000 000000
2016-04-01 03:50:28,0.05,6.88,0.00,12.44,16.89,21.30,15.31,51.46,1020.03,2072.22,1638.83,1858.74,2103.53,599.80,619.92,38.31,0000 0000 0000 0000 000000
2016-04-01 03:55:29,0.08,6.88,0.00,12.47,16.94,21.35,15.20,51.26,1020.03,2072.04,1638.07,1858.01,2102.74,599.67,619.76,38.36,0000 0000 0000 0000 000000
2016-04-01 04:00:31,0.12,6.89,0.00,12.47,16.98,21.37,15.31,51.27,1020.05,2072.01,1637.43,1857.25,2101.92,599.93,619.96,38.41,0000 0000 0000 0000 000000
2016-04-01 04:05:32,0.11,6.89,0.00,12.54,17.03,21.39,15.29,51.36,1020.05,2072.00,1636.56,1856.59,2101.05,600.36,620.33,38.46,0000 0000 0000 0000 000000
2016-04-01 04:10:34,0.09,6.90,0.00,12.60,17.07,21.43,15.31,51.47,1020.04,2072.00,1635.66,1855.93,2100.21,600.14,619.94,38.51,0000 0000 0000 0000 000000
2016-04-01 04:15:35,0.10,6.90,0.00,12.60,17.12,21.49,15.29,51.47,1020.04,2071.98,1634.93,1855.11,2099.42,599.90,619.75,38.56,0000 0000 0000 0000 000000
2016-04-01 04:20:37,0.06,6.91,0.00,12.60,17.17,21.51,15.30,51.48,1020.04,2071.66,1634.03,1854.54,2098.52,600.30,620.05,38.61,0000 0000 0000 0000 000000
2016-04-01 04:25:38,0.05,6.91,0.00,12.65,17.23,21.56,15.22,51.53,1020.04,2071.15,1633.09,1853.85,2097.66,599.85,619.57,38.66,0000 0000 0000 0000 000000
2016-04-01 04:30:40,0.11,6.91,0.00,12.69,17.28,21.59,15.26,51.49,1020.04,2071.00,1632.16,1853.01,2096.78,599.91,619.56,38.71,0000 0000 0000 0000 000000
2016-04-01 04:35:41,0.12,6.92,0.00,12.69,17.33,21.63,15.23,51.64,1020.04,2071.00,1631.25,1852.13,2095.95,600.02,619.54,38.76,0000 0000 0000 0000 000000
2016-04-01 04:40:42,0.12,6.93,0.00,12.68,17.38,21.66,15.22,51.71,1020.03,2070.96,1630.51,1851.46,2095.05,600.07,619.80,38.81,0000 0000 0000 0000 000000
2016-04-01 04:45:44,0.07,6.93,0.00,12.73,17.43,21.71,15.28,51.64,1020.01,2070.78,1629.69,1850.81,2094.14,600.04,619.50,38.86,0000 0000 0000 0000 000000
2016-04-01 04:50:45,0.04,6.93,0.00,12.76,17.46,21.74,15.18,51.66,1019.92,2070.22,1628.72,1850.00,2093.30,600.13,619.44,38.92,0000 0000 0000 0000 000000
2016-04-01 04:55:46,0.12,6.94,0.00,12.73,17.49,21.72,15.28,51.64,1020.02,2070.05,1627.73,1849.15,2092.39,600.06,619.53,38.97,0000 0000 0000 0000 000000
2016-04-01 05:00:48,0.12,6.94,0.00,12.74,17.52,21.75,15.32,51.58,1019.99,2070.00,1626.78,1848.52,2091.56,600.42,619.98,39.02,0000 0000 0000 0000 000000
2016-04-01 05:05:49,0.11,6.95,0.00,12.80,17.54,21.81,15.29,51.48,1020.00,2070.00,1625.67,1847.87,2090.70,599.94,619.30,39.07,0000 0000 0000 0000 000000
2016-04-01 05:10:50,0.11,6.96,0.00,12.81,17.54,21.76,15.26,51.51,1020.03,2070.00,1624.77,1847.07,2089.90,600.14,619.53,39.12,0000 0000 0000 0000 000000
2016-04-01 05:15:52,0.10,6.96,0.00,12.78,17.56,21.77,15.21,51.43,1020.03,2069.99,1623.90,1846.45,2089.07,599.87,619.31,39.17,0000 0000 0000 0000 000000
2016-04-01 05:20:53,0.10,6.97,0.00,12.83,17.57,21.75,15.21,51.40,1020.03,2069.97,1622.94,1845.82,2088.26,600.06,619.23,39.22,0000 0000 0000 0000 000000
2016-04-01 05:25:54,0.11,6.97,0.00,12.88,17.59,21.79,15.26,51.38,1020.05,2069.96,1622.06,1845.04,2087.54,599.91,619.13,39.27,0000 0000 0000 0000 000000
2016-04-01 05:30:55,0.12,6.98,0.00,12.90,17.59,21.85,15.28,51.34,1020.07,2069.89,1621.18,1844.34,2086.74,600.14,619.35,39.32,0000 0000 0000 0000 000000
2016-04-01 05:35:57,0.06,6.98,0.00,12.91,17.62,21.88,15.24,51.34,1020.15,2069.78,1620.22,1843.84,2085.98,600.31,619.46,39.37,0000 0000 0000 0000 000000
2016-04-01 05:40:58,0.11,6.99,0.00,12.95,17.63,21.95,15.28,51.23,1020.30,2069.69,1619.57,1843.06,2085.21,600.04,619.33,39.42,0000 0000 0000 0000 000000
2016-04-01 05:45:59,0.07,6.99,0.00,13.00,17.64,21.97,15.26,51.29,1020.21,2069.41,1618.74,1842.55,2084.54,600.21,619.27,39.47,0000 0000 0000 0000 000000
2016-04-01 05:51:01,0.02,7.00,0.00,12.99,17.67,21.95,15.26,51.26,1020.33,2069.16,1618.00,1841.98,2083.88,600.27,619.30,39.52,0000 0000 0000 0000 000000
2016-04-01 05:56:01,0.12,7.00,0.00,12.98,17.69,21.95,15.30,51.31,1020.43,2069.06,1617.15,1841.19,2083.06,600.08,619.36,39.57,0000 0000 0000 0000 000000
2016-04-01 06:01:03,0.11,7.00,0.00,13.04,17.72,22.03,15.26,51.35,1020.51,2069.02,1616.37,1840.71,2082.31,599.71,618.87,39.62,0000 0000 0000 0000 000000
2016-04-01 06:06:04,0.10,7.01,0.00,13.09,17.73,22.04,15.27,51.29,1020.52,2069.02,1615.51,1840.01,2081.56,599.92,619.01,39.67,0000 0000 0000 0000 000000
2016-04-01 06:11:05,0.09,7.02,0.00,13.07,17.76,22.10,15.22,51.27,1020.52,2069.00,1614.79,1839.28,2080.89,599.94,618.85,39.72,0000 0000 0000 0000 000000
2016-04-01 06:16:06,0.09,7.02,0.00,13.05,17.78,22.13,15.28,51.33,1020.52,2069.00,1613.98,1838.76,2080.06,600.14,619.21,39.77,0000 0000 0000 0000 000000
2016-04-01 06:21:08,0.14,7.03,0.00,13.10,17.81,22.12,15.23,51.29,1020.53,2068.99,1612.93,1837.85,2079.05,600.00,618.94,39.82,0000 0000 0000 0000 000000
2016-04-01 06:26:09,0.25,7.04,0.00,13.13,17.83,22.16,15.18,51.23,1020.53,2068.98,1611.37,1836.53,2077.58,599.70,618.61,39.88,0000 0000 0000 0000 000000
2016-04-01 06:31:10,0.23,7.05,0.00,13.09,17.86,22.13,15.23,51.33,1020.52,2068.97,1609.44,1835.07,2075.90,600.12,619.20,39.93,0000 0000 0000 0000 000000
2016-04-01 06:36:12,0.22,7.06,0.00,13.13,17.88,22.18,15.21,51.31,1020.52,2068.97,1607.67,1833.75,2074.33,599.67,618.67,39.98,0000 0000 0000 0000 000000
2016-04-01 06:41:13,0.15,7.07,0.00,13.18,17.90,22.19,15.26,51.31,1020.53,2068.91,1606.41,1832.68,2073.16,599.92,618.71,40.03,0000 0000 0000 0000 000000
2016-04-01 06:46:15,0.10,7.08,0.00,13.18,17.93,22.17,15.27,51.29,1020.52,2068.77,1605.19,1831.88,2072.12,600.11,618.95,40.08,0000 0000 0000 0000 000000
2016-04-01 06:51:16,0.07,7.08,0.00,13.17,17.94,22.18,15.22,51.26,1020.52,2068.28,1604.35,1831.07,2071.26,599.84,618.76,40.13,0000 0000 0000 0000 000000
2016-04-01 06:56:17,0.10,7.08,0.00,13.22,17.97,22.13,15.27,51.45,1020.52,2068.07,1603.54,1830.43,2070.54,600.15,618.81,40.18,0000 0000 0000 0000 000000
2016-04-01 07:01:18,0.08,7.09,0.00,13.26,17.99,22.12,15.28,51.28,1020.54,2068.02,1602.66,1829.83,2069.80,600.10,618.79,40.23,0000 0000 0000 0000 000000
2016-04-01 07:06:20,0.10,7.10,0.00,13.24,18.01,22.15,15.25,51.32,1020.54,2068.01,1601.83,1829.05,2069.03,599.93,618.51,40.28,0000 0000 0000 0000 000000
2016-04-01 07:11:21,0.12,7.10,0.00,13.27,18.02,22.26,15.26,51.24,1020.57,2068.00,1600.99,1828.52,2068.22,599.84,618.56,40.33,0000 0000 0000 0000 000000
2016-04-01 07:16:22,0.09,7.11,0.00,13.34,18.04,22.21,15.28,51.23,1020.63,2068.00,1600.19,1827.91,2067.52,600.07,618.64,40.38,0000 0000 0000 0000 000000
2016-04-01 07:21:23,0.11,7.11,0.00,13.37,18.06,22.26,15.14,51.22,1020.82,2067.99,1599.42,1827.10,2066.87,599.75,618.42,40.43,0000 0000 0000 0000 000000
2016-04-01 07:26:25,0.07,7.12,0.00,13.35,18.07,22.29,15.29,51.23,1020.99,2067.98,1598.95,1826.64,2066.06,599.82,618.60,40.48,0000 0000 0000 0000 000000
2016-04-01 07:31:26,0.10,7.12,0.00,13.34,18.09,22.31,15.21,51.11,1021.00,2067.96,1598.12,1826.00,2065.28,599.74,618.56,40.53,0000 0000 0000 0000 000000
2016-04-01 07:36:28,0.12,7.13,0.00,13.37,18.09,22.34,15.22,51.16,1021.01,2067.95,1597.24,1825.32,2064.66,600.31,619.03,40.58,0000 0000 0000 0000 000000
2016-04-01 07:41:29,0.06,7.13,0.00,13.38,18.10,22.33,15.23,51.07,1021.01,2067.93,1596.47,1824.89,2063.98,599.82,618.49,40.63,0000 0000 0000 0000 000000
2016-04-01 07:46:30,0.08,7.14,0.00,13.35,18.11,22.27,15.20,50.96,1021.01,2067.76,1595.91,1824.09,2063.14,599.88,618.63,40.68,0000 0000 0000 0000 000000
2016-04-01 07:51:32,0.09,7.14,0.00,13.39,18.12,22.31,15.23,50.98,1021.01,2067.61,1595.01,1823.64,2062.58,600.22,618.81,40.74,0000 0000 0000 0000 000000
2016-04-01 07:56:33,0.08,7.14,0.00,13.44,18.12,22.30,15.19,50.95,1021.01,2067.52,1594.07,1822.99,2061.87,600.05,618.65,40.79,0000 0000 0000 0000 000000
2016-04-01 08:01:34,0.09,7.15,0.00,13.43,18.14,22.30,15.13,50.93,1021.01,2067.37,1593.37,1822.32,2061.08,599.64,618.18,40.84,0000 0000 0000 0000 000000
2016-04-01 08:06:36,0.09,7.15,0.00,13.40,18.14,22.36,15.28,50.99,1021.02,2067.28,1592.42,1821.93,2060.41,600.02,618.72,40.89,0000 0000 0000 0000 000000
2016-04-01 08:11:37,0.08,7.16,0.00,13.46,18.15,22.37,15.32,50.92,1021.14,2067.19,1591.84,1821.11,2059.89,600.19,618.86,40.94,0000 0000 0000 0000 000000
2016-04-01 08:16:38,0.07,7.16,0.00,13.52,18.17,22.41,15.23,50.96,1021.37,2067.12,1591.04,1820.71,2059.06,600.13,618.70,40.99,0000 0000 0000 0000 000000
2016-04-01 08:21:39,0.11,7.17,0.00,13.48,18.19,22.46,15.18,51.02,1021.45,2067.03,1590.20,1820.03,2058.29,599.89,618.59,41.04,0000 0000 0000 0000 000000
2016-04-01 08:26:41,0.12,7.17,0.00,13.49,18.19,22.51,15.28,51.00,1021.49,2067.02,1589.46,1819.35,2057.69,600.09,619.00,41.09,0000 0000 0000 0000 000000
2016-04-01 08:31:42,0.06,7.18,0.00,13.53,18.22,22.59,15.21,50.98,1021.50,2067.02,1588.75,1818.85,2057.00,599.95,618.59,41.14,0000 0000 0000 0000 000000
2016-04-01 08:36:43,0.10,7.18,0.00,13.55,18.23,22.59,15.27,51.00,1021.50,2067.01,1587.95,1818.06,2056.20,600.16,618.77,41.19,0000 0000 0000 0000 000000
2016-04-01 08:41:45,0.12,7.19,0.00,13.50,18.25,22.64,15.31,50.98,1021.50,2067.00,1587.10,1817.59,2055.52,600.16,618.79,41.24,0000 0000 0000 0000 000000
2016-04-01 08:46:46,0.07,7.19,0.00,13.53,18.27,22.65,15.20,50.98,1021.50,2067.00,1586.52,1816.99,2054.92,600.08,618.79,41.29,0000 0000 0000 0000 000000
2016-04-01 08:51:47,0.12,7.20,0.00,13.62,18.29,22.73,15.26,51.03,1021.50,2067.00,1585.75,1816.23,2054.09,600.03,618.51,41.34,0000 0000 0000 0000 000000
2016-04-01 08:56:48,0.09,7.20,0.00,13.63,18.30,22.74,15.23,50.97,1021.50,2066.99,1584.83,1815.81,2053.33,600.26,618.74,41.39,0000 0000 0000 0000 000000
2016-04-01 09:01:50,0.10,7.21,0.00,13.58,18.33,22.78,15.32,50.99,1021.51,2066.98,1584.03,1815.05,2052.71,600.29,618.90,41.44,0000 0000 0000 0000 000000
2016-04-01 09:06:51,0.11,7.21,0.00,13.62,18.34,22.82,15.24,51.03,1021.51,2066.97,1583.26,1814.43,2051.94,600.05,618.57,41.49,0000 0000 0000 0000 000000
2016-04-01 09:11:52,0.03,7.22,0.00,13.66,18.37,22.84,15.22,50.98,1021.53,2066.76,1582.60,1813.92,2051.11,599.74,618.14,41.54,0000 0000 0000 0000 000000
2016-04-01 09:16:53,0.08,7.22,0.00,13.65,18.39,22.81,15.12,50.94,1021.56,2066.41,1581.78,1813.12,2050.43,599.69,618.15,41.60,0000 0000 0000 0000 000000
2016-04-01 09:21:55,0.09,7.22,0.00,13.63,18.41,22.83,15.21,51.01,1021.61,2066.08,1580.94,1812.45,2049.64,599.83,618.37,41.65,0000 0000 0000 0000 000000
2016-04-01 09:26:56,0.07,7.23,0.00,13.65,18.42,22.82,15.30,51.17,1021.71,2066.05,1580.07,1811.92,2048.93,600.11,618.67,41.70,0000 0000 0000 0000 000000
2016-04-01 09:31:57,0.14,7.24,0.00,13.69,18.44,22.84,15.35,51.06,1021.75,2066.03,1579.20,1811.10,2048.06,600.26,618.63,41.75,0000 0000 0000 0000 000000
2016-04-01 09:36:59,0.13,7.24,0.00,13.67,18.44,22.83,15.23,51.07,1021.79,2066.02,1578.33,1810.48,2047.18,600.16,618.72,41.80,0000 0000 0000 0000 000000
2016-04-01 09:42:00,0.07,7.25,0.00,13.61,18.46,22.80,15.25,50.91,1021.87,2066.00,1577.37,1809.93,2046.82,600.21,618.83,41.85,0000 0000 0000 0000 000000
2016-04-01 09:47:01,0.13,7.25,0.00,13.62,18.47,22.80,15.27,50.95,1021.92,2066.01,1576.52,1809.12,2046.03,599.79,618.71,41.90,0000 0000 0000 0000 000000
2016-04-01 09:52:03,0.11,7.26,0.00,13.65,18.47,22.79,15.23,51.01,1021.97,2066.00,1575.71,1808.60,2045.27,599.90,618.57,41.95,0000 0000 0000 0000 000000
2016-04-01 09:57:05,0.05,7.26,0.00,13.64,18.47,22.80,15.32,50.97,1021.99,2066.00,1575.01,1808.01,2044.81,599.80,618.62,42.00,0000 0000 0000 0000 000000
2016-04-01 10:02:06,0.11,7.27,0.00,13.59,18.47,22.78,15.19,50.83,1021.99,2066.00,1574.50,1807.54,2044.02,599.19,618.02,42.05,0000 0000 0000 0000 000000
2016-04-01 10:07:07,0.12,7.27,0.00,13.57,18.47,22.67,15.23,50.84,1021.99,2066.00,1573.28,1806.88,2043.16,599.97,618.83,42.10,0000 0000 0000 0000 000000
2016-04-01 10:12:08,0.13,7.28,0.00,13.59,18.46,22.70,15.22,50.91,1021.99,2066.00,1572.37,1806.08,2042.55,600.09,618.92,42.15,0000 0000 0000 0000 000000
2016-04-01 10:17:09,0.09,7.28,0.00,13.56,18.44,22.67,15.24,50.81,1021.99,2065.99,1571.52,1805.67,2041.93,599.73,618.63,42.20,0000 0000 0000 0000 000000
2016-04-01 10:22:11,0.11,7.29,0.00,13.48,18.43,22.60,15.26,50.93,1021.99,2065.99,1570.32,1805.02,2041.08,599.97,619.00,42.25,0000 0000 0000 0000 000000
2016-04-01 10:27:12,0.06,7.29,0.00,13.46,18.42,22.54,15.24,50.84,1021.99,2065.99,1570.01,1804.62,2040.67,600.11,619.11,42.30,0000 0000 0000 0000 000000
2016-04-01 10:32:13,0.08,7.30,0.00,13.48,18.40,22.56,15.22,50.77,1021.97,2066.00,1569.55,1804.03,2040.04,599.72,618.84,42.35,0000 0000 0000 0000 000000
2016-04-01 10:37:14,0.08,7.30,0.00,13.47,18.39,22.58,15.24,50.89,1021.92,2066.00,1568.77,1803.74,2039.58,600.10,619.21,42.40,0000 0000 0000 0000 000000
2016-04-01 10:42:16,0.08,7.31,0.00,13.44,18.37,22.52,15.27,50.74,1021.96,2066.02,1567.97,1803.03,2038.98,599.96,619.16,42.45,0000 0000 0000 0000 000000
2016-04-01 10:47:17,0.10,7.31,0.00,13.46,18.35,22.48,15.21,50.76,1021.99,2066.02,1567.23,1802.74,2038.20,599.88,618.82,42.51,0000 0000 0000 0000 000000
2016-04-01 10:52:18,0.09,7.32,0.00,13.43,18.33,22.50,15.24,50.70,1021.99,2066.06,1566.46,1802.05,2037.81,599.90,619.03,42.56,0000 0000 0000 0000 000000
2016-04-01 10:57:20,0.11,7.32,0.00,13.36,18.30,22.48,15.27,50.80,1021.99,2066.09,1565.65,1801.69,2037.04,599.95,619.32,42.61,0000 0000 0000 0000 000000
2016-04-01 11:02:21,0.11,7.33,0.00,13.34,18.28,22.43,15.30,50.82,1022.00,2066.26,1564.76,1801.02,2036.39,600.17,619.48,42.66,0000 0000 0000 0000 000000
2016-04-01 11:07:22,0.15,7.34,0.00,13.35,18.25,22.39,15.35,50.77,1022.01,2066.68,1563.81,1800.57,2035.91,600.19,619.59,42.71,0000 0000 0000 0000 000000
2016-04-01 11:12:23,0.09,7.34,0.00,13.30,18.23,22.53,15.27,50.84,1022.00,2066.87,1563.24,1800.01,2035.17,599.82,619.20,42.76,0000 0000 0000 0000 000000
2016-04-01 11:17:25,0.11,7.35,0.00,13.22,18.20,22.38,15.30,50.85,1021.99,2066.96,1562.43,1799.67,2034.78,600.13,619.78,42.81,0000 0000 0000 0000 000000
2016-04-01 11:22:26,0.09,7.35,0.00,13.20,18.17,22.34,15.39,51.00,1021.99,2066.98,1561.65,1799.02,2034.03,600.38,620.03,42.86,0000 0000 0000 0000 000000
2016-04-01 11:27:27,0.07,7.36,0.00,13.17,18.15,22.35,15.34,50.98,1021.99,2066.99,1560.97,1798.76,2033.48,600.16,619.91,42.91,0000 0000 0000 0000 000000
2016-04-01 11:32:28,0.09,7.36,0.00,13.13,18.12,22.40,15.25,50.98,1021.99,2066.99,1560.20,1798.06,2032.98,600.25,620.17,42.96,0000 0000 0000 0000 000000
2016-04-01 11:37:29,0.12,7.37,0.00,13.09,18.09,22.31,15.21,50.89,1022.00,2066.99,1559.36,1797.67,2032.22,599.78,619.71,43.01,0000 0000 0000 0000 000000
2016-04-01 11:42:30,0.07,7.37,0.00,13.07,18.06,22.29,15.25,50.87,1021.99,2067.01,1558.68,1797.02,2031.83,599.87,619.86,43.06,0000 0000 0000 0000 000000
2016-04-01 11:47:32,0.08,7.38,0.00,13.04,18.03,22.26,15.32,50.94,1022.00,2067.03,1557.97,1796.71,2031.06,600.05,620.02,43.11,0000 0000 0000 0000 000000
2016-04-01 11:52:33,0.15,7.38,0.00,13.02,18.01,22.27,15.34,50.90,1022.00,2067.32,1557.26,1796.04,2030.68,600.19,620.28,43.16,0000 0000 0000 0000 000000
2016-04-01 11:57:34,0.13,7.39,0.00,12.97,17.98,22.19,15.27,50.83,1022.00,2067.80,1556.51,1795.84,2030.02,599.92,620.22,43.21,0000 0000 0000 0000 000000
2016-04-01 12:02:36,0.09,7.40,0.00,12.92,17.95,22.25,15.35,50.89,1021.99,2067.96,1555.99,1795.12,2029.53,600.12,620.46,43.26,0000 0000 0000 0000 000000
2016-04-01 12:07:37,0.08,7.40,0.00,12.90,17.92,22.17,15.31,50.86,1021.99,2067.98,1555.11,1794.82,2028.93,599.80,620.17,43.31,0000 0000 0000 0000 000000
2016-04-01 12:12:38,0.13,7.41,0.00,12.89,17.89,22.21,15.26,50.85,1021.99,2067.99,1554.13,1794.08,2028.13,599.87,620.22,43.37,0000 0000 0000 0000 000000
2016-04-01 12:17:40,0.05,7.41,0.00,12.83,17.86,22.02,15.31,50.73,1021.99,2067.99,1553.67,1793.91,2027.85,599.88,620.38,43.42,0000 0000 0000 0000 000000
2016-04-01 12:22:41,0.10,7.42,0.00,12.81,17.83,22.15,15.19,50.73,1021.99,2068.01,1553.01,1793.15,2027.11,599.84,620.29,43.47,0000 0000 0000 0000 000000
2016-04-01 12:27:42,0.06,7.42,0.00,12.77,17.80,22.10,15.30,50.77,1021.99,2068.02,1552.41,1792.99,2026.82,600.17,620.76,43.52,0000 0000 0000 0000 000000
2016-04-01 12:32:44,0.17,7.43,0.00,12.74,17.77,22.01,15.31,50.79,1021.99,2068.26,1551.53,1792.34,2026.13,599.86,620.56,43.57,0000 0000 0000 0000 000000
2016-04-01 12:37:45,0.12,7.43,0.00,12.71,17.74,22.02,15.35,50.65,1021.99,2068.83,1550.85,1792.00,2025.55,599.95,620.67,43.62,0000 0000 0000 0000 000000
2016-04-01 12:42:46,0.10,7.44,0.00,12.66,17.71,21.99,15.28,50.67,1021.99,2068.92,1550.06,1791.47,2025.01,600.01,620.88,43.67,0000 0000 0000 0000 000000
2016-04-01 12:47:47,0.09,7.44,0.00,12.64,17.68,21.92,15.33,50.57,1021.99,2068.98,1549.51,1791.02,2024.46,599.92,620.64,43.72,0000 0000 0000 0000 000000
2016-04-01 12:52:48,0.06,7.45,0.00,12.62,17.65,21.84,15.33,50.80,1021.99,2068.99,1548.98,1790.58,2023.99,599.92,620.87,43.77,0000 0000 0000 0000 000000
2016-04-01 12:57:50,0.10,7.45,0.00,12.58,17.62,21.88,15.23,50.78,1021.99,2068.99,1548.25,1790.02,2023.33,599.89,620.91,43.82,0000 0000 0000 0000 000000